Miscellaneous Local Product
Issued by NWS North Platte, NE

Home | Current Version | Previous Version | Text Only | Print | Product List | Glossary On
Versions: 1 2 3 4 5 6 7 8 9 10 11 12 13 14 15 16 17 18 19 20 21 22 23 24 25 26 27 28 29 30 31 32 33 34 35 36 37 38 39 40 41 42 43 44 45 46 47 48 49 50
000
AXUS43 KLBF 171510
MISLBF


WESTERN AND NORTH CENTRAL NEBRASKA HOURLY WEATHER ROUNDUP
NATIONAL WEATHER SERVICE NORTH PLATTE NE
900 AM CST TUE JAN 17 2017

NOTE: "FAIR" INDICATES FEW OR NO CLOUDS BELOW 12,000 FEET WITH NO
SIGNIFICANT WEATHER AND/OR OBSTRUCTIONS TO VISIBILITY.

NOTE: STATIONS NOT REPORTING VARIABLES SUCH AS SKY/WEATHER OR
PRESSURE ARE PROVIDED BY RAWS AND APRS NETWORKS AND ARE NOT UNDER
NATIONAL WEATHER SERVICE QUALITY CONTROL.

...OBSERVATIONS IN AND NEAR THE EASTERN PANHANDLE OF NEBRASKA...

CITY           SKY/WX    TMP DP  RH WIND       PRES   REMARKS
PINE RIDGE     CLEAR      2  -1  88 CALM      29.99F
CHADRON        CLEAR      6   1  80 SW3       30.01F
ALLIANCE       CLOUDY    10   6  84 W5        30.02R WCI   2
SIDNEY         CLOUDY    15   8  73 W8        30.05S WCI   4
CRESCENT LAKE    N/A     20  14  77 CALM        N/A
$$

...OBSERVATIONS IN NORTHERN NEBRASKA AND FAR SOUTHERN SOUTH DAKOTA...

CITY           SKY/WX    TMP DP  RH WIND       PRES   REMARKS
WINNER         FAIR      22  16  78 SW8       30.01F WCI  12
VALENTINE      CLOUDY    16  10  77 W5        30.03S WCI   9
THEDFORD       CLOUDY    22  18  84 W5        30.05R WCI  15
AINSWORTH      CLOUDY    20  16  87 W6        30.03S WCI  12
O`NEILL        CLOUDY    21  18  87 W5        30.05R WCI  15
ORD            CLOUDY    21  15  78 N3        30.05R
BROKEN BOW     CLOUDY    22  17  81 CALM      30.05R
VALENTINE NWR    N/A     20  13  74 W5          N/A  WCI  14
BUTTE            N/A     17  14  86 SW7         N/A  WCI   8
HALSEY           N/A     19  15  82 CALM        N/A
SARGENT          N/A     21  17  83 W3          N/A
CHAMBERS         N/A     23  19  85 CALM        N/A
EWING            N/A     20  17  89 NW5         N/A  WCI  14
$$

...OBSERVATIONS IN SOUTHWEST NEBRASKA AND FAR NORTHEAST COLORADO...

CITY           SKY/WX    TMP DP  RH WIND       PRES   REMARKS
HOLYOKE        FAIR      14   9  79 W7        30.09R WCI   4
IMPERIAL       CLOUDY    22  14  71 W7        30.10R WCI  13
OGALLALA       CLOUDY    20  16  84 SW7       30.08S WCI  11
NORTH PLATTE   CLOUDY    22  17  81 W3        30.08R
MCCOOK         CLOUDY    25  21  85 W9        30.10R WCI  15
LEXINGTON      CLOUDY    26  21  82 NW9       30.09R WCI  16
STAPLETON        N/A     21  17  84 CALM        N/A
GOTHENBURG       N/A     24  19  82 W3          N/A
CALLAWAY         N/A     21  18  89 CALM        N/A
$$

...OBSERVATIONS IN CENTRAL LINCOLN COUNTY AREA...

CITY           SKY/WX    TMP DP  RH WIND       PRES   REMARKS
N.P. AIRPORT   CLOUDY    22  17  81 W3        30.08R
N.P. DOWNTOWN    N/A     23  20  87 CALM        N/A
N.P. SOUTHEAST   N/A     24  19  82 W3          N/A
N.P. HILLCREST   N/A     22  19  88 W3          N/A
$$

...SOME OBSERVATIONS FROM AROUND THE REGION...

CITY           SKY/WX    TMP DP  RH WIND       PRES   REMARKS
LARAMIE        FOG       -7 -10  87 CALM      30.05S VSB 1/4
CHEYENNE       CLOUDY    14   8  77 SW8       30.02R WCI   3
DENVER         CLOUDY    24  19  81 SW9       30.04R WCI  14
AKRON          CLOUDY    23  12  62 SW10      30.06R WCI  12
SCOTTSBLUFF    CLOUDY    13   7  77 N5        30.05R WCI   5
RAPID CITY     CLOUDY     9   4  80 CALM      29.94S
BISMARCK       CLOUDY     3   0  87 CALM      29.93F
PIERRE         CLOUDY    13   8  81 W6        30.01R WCI   4
SIOUX FALLS    CLOUDY    11   9  92 W3        30.03S
OMAHA          FRZ DRZL  27  22  81 NW9       30.08R FOG     WCI  18
GRAND ISLAND   CLOUDY    24  21  88 NW9       30.09R WCI  14
KANSAS CITY    CLOUDY    34  34 100 W6        30.08R FOG     WCI  29
WICHITA        MOSUNNY   36  31  82 NW10      30.12R WCI  28
OKLAHOMA CITY  MOSUNNY   38  34  85 N9        30.15R WCI  31
DALLAS         PTSUNNY   45  38  76 N9        30.17R
AMARILLO       CLOUDY    36  33  89 NW5       30.17R WCI  32
DODGE CITY     CLOUDY    34  30  85 NW8       30.13R WCI  27
HAYS           CLOUDY    33  28  81 W7        30.13R WCI  27
GOODLAND       CLOUDY    23  18  81 W8        30.10R WCI  14
$$




USA.gov is the U.S. government's official web portal to all federal, state and local government web resources and services.